Dax, France

10:55 AM CEST on August 21, 2017 (GMT +0200)
Seyresse Army

Weather History for LFBY - February, 2013

Change the Weather History Date:

Tuesday, February 19, 2013

  Actual Average (LFBZ) Record (LFBZ)
Temperature  
Mean Temperature 51 °F -  
Max Temperature 60 °F 56 °F 69 °F (1998)
Min Temperature 42 °F 42 °F 33 °F (2004)
Degree Days  
Heating Degree Days 14    
Growing Degree Days 1 (Base 50)    
Moisture  
Dew Point 44 °F    
Average Humidity 82    
Maximum Humidity 100    
Minimum Humidity 55    
Precipitation  
Precipitation 0.00 in - - ()
Sea Level Pressure  
Sea Level Pressure 29.90 in    
Wind  
Wind Speed 6 mph ()    
Max Wind Speed 10 mph    
Max Gust Speed -    
Visibility 4.4 miles    
Events      
Averages and records for this station are not official NWS values.
T = Trace of Precipitation, MM = Missing Value Source: Averaged Metar Reports

Daily Weather History Graph

Daily Weather History Graph

Search for Another Location

Airport or City:

Trip Planner

Search our weather history database for the weather conditions in past years. The results will help you decide how hot, cold, wet, or windy it might be!

Date:

Astronomy

Feb. 19, 2013 Rise Set
Actual Time 7:56 AM CET 6:39 PM CET
Civil Twilight 7:27 AM CET 7:09 PM CET
Nautical Twilight 6:54 AM CET 7:42 PM CET
Astronomical Twilight 6:21 AM CET 8:15 PM CET
Moon 12:54 PM CET (2/19) 3:21 AM CET (2/19)
Length of Visible Light 11h 41m
Length of Day
10h 43m
Waxing Gibbous, 65% of the Moon is Illuminated
Feb 19
Waxing Gibbous
Feb 25
Full
Mar 4
Last Quarter
Mar 11
New
Mar 19
First Quarter

Hourly Weather History & Observations

Time (CET) Temp. Windchill Dew Point Humidity Pressure Visibility Wind Dir Wind Speed Gust Speed Precip Events Conditions
12:00 AM 48.2 °F - 42.8 °F 82% 29.92 in 6.2 mi ENE 4.6 mph - N/A   Unknown
1:00 AM 46.4 °F 43.5 °F 44.6 °F 93% 29.92 in 6.2 mi NE 5.8 mph - N/A   Unknown
2:00 AM 44.6 °F 42.2 °F 42.8 °F 93% 29.92 in 5.0 mi NE 4.6 mph - N/A   Unknown
3:00 AM 44.6 °F 41.4 °F 42.8 °F 93% 29.92 in 3.7 mi ENE 5.8 mph - N/A   Unknown
4:00 AM 42.8 °F 38.6 °F 42.8 °F 100% 29.89 in 3.1 mi ENE 6.9 mph - N/A   Unknown
5:00 AM 42.8 °F 37.5 °F 42.8 °F 100% 29.89 in 1.4 mi ENE 9.2 mph - N/A   Unknown
6:00 AM 42.8 °F 38.6 °F 42.8 °F 100% 29.89 in - East 6.9 mph - N/A   Overcast
7:00 AM 42.8 °F 37.5 °F 42.8 °F 100% 29.89 in 1.9 mi East 9.2 mph - N/A   Overcast
8:00 AM 44.6 °F 40.7 °F 42.8 °F 93% 29.92 in 1.9 mi East 6.9 mph - N/A   Overcast
10:00 AM 44.6 °F 39.7 °F 42.8 °F 93% 29.92 in 2.5 mi East 9.2 mph - N/A   Mostly Cloudy
11:00 AM 44.6 °F 39.2 °F 42.8 °F 93% 29.92 in 2.5 mi East 10.4 mph - N/A   Mostly Cloudy
11:52 AM 48.2 °F - 44.6 °F 87% 29.92 in 2.5 mi ESE 5.8 mph - N/A   Mostly Cloudy
2:00 PM 57.2 °F - 44.6 °F 63% 29.89 in - NE 6.9 mph - N/A   Clear
3:00 PM 59.0 °F - 44.6 °F 59% 29.86 in - ENE 6.9 mph - N/A   Clear
4:00 PM 60.8 °F - 44.6 °F 55% 29.86 in - ENE 8.1 mph - N/A   Clear
5:00 PM 60.8 °F - 46.4 °F 59% 29.86 in - ENE 8.1 mph - N/A   Clear
6:00 PM 59.0 °F - 44.6 °F 59% 29.86 in 6.2 mi ENE 8.1 mph - N/A   Unknown
7:00 PM 55.4 °F - 44.6 °F 67% 29.86 in 6.2 mi ENE 6.9 mph - N/A   Unknown
8:00 PM 55.4 °F - 44.6 °F 67% 29.89 in 6.2 mi ENE 5.8 mph - N/A   Unknown
9:00 PM 51.8 °F - 44.6 °F 76% 29.89 in 6.2 mi Variable 2.3 mph - N/A   Unknown
10:00 PM 51.8 °F - 44.6 °F 76% 29.89 in 6.2 mi NE 4.6 mph - N/A   Unknown
11:00 PM 48.2 °F - 44.6 °F 87% 29.92 in 6.2 mi ENE 5.8 mph - N/A   Unknown